owner,sensor,date,latitude,longitude,sea_water_turbidity,qcFlag 
NERRS,ioos:station:NOAA.NERRS:rkblhwq:1,2014-08-01T00:45:00Z,26.0257,-81.7332,133.0,1111122 
NERRS,ioos:station:NOAA.NERRS:rkblhwq:1,2014-08-01T01:45:00Z,26.0257,-81.7332,180.0,1111122 
NERRS,ioos:station:NOAA.NERRS:rkblhwq:1,2014-08-01T02:45:00Z,26.0257,-81.7332,241.0,1111122 
NERRS,ioos:station:NOAA.NERRS:rkblhwq:1,2014-08-01T03:45:00Z,26.0257,-81.7332,95.0,1111122 
NERRS,ioos:station:NOAA.NERRS:rkblhwq:1,2014-08-01T04:45:00Z,26.0257,-81.7332,33.0,1111122 
NERRS,ioos:station:NOAA.NERRS:rkblhwq:1,2014-08-01T06:45:00Z,26.0257,-81.7332,58.0,1111122 
NERRS,ioos:station:NOAA.NERRS:rkblhwq:1,2014-08-01T07:45:00Z,26.0257,-81.7332,54.0,1111122 
NERRS,ioos:station:NOAA.NERRS:rkblhwq:1,2014-08-01T08:45:00Z,26.0257,-81.7332,156.0,1111122 
NERRS,ioos:station:NOAA.NERRS:rkblhwq:1,2014-08-01T09:45:00Z,26.0257,-81.7332,57.0,1111122 
NERRS,ioos:station:NOAA.NERRS:rkblhwq:1,2014-08-01T10:45:00Z,26.0257,-81.7332,54.0,1111122 
NERRS,ioos:station:NOAA.NERRS:rkblhwq:1,2014-08-01T11:45:00Z,26.0257,-81.7332,43.0,1111122 
NERRS,ioos:station:NOAA.NERRS:rkblhwq:1,2014-08-01T12:45:00Z,26.0257,-81.7332,42.0,1111122 
NERRS,ioos:station:NOAA.NERRS:rkblhwq:1,2014-08-01T13:45:00Z,26.0257,-81.7332,105.0,1111122 
NERRS,ioos:station:NOAA.NERRS:rkblhwq:1,2014-08-01T14:45:00Z,26.0257,-81.7332,39.0,1111122 
NERRS,ioos:station:NOAA.NERRS:rkblhwq:1,2014-08-01T15:45:00Z,26.0257,-81.7332,46.0,1111122 
NERRS,ioos:station:NOAA.NERRS:rkblhwq:1,2014-08-01T16:45:00Z,26.0257,-81.7332,84.0,1111122 
NERRS,ioos:station:NOAA.NERRS:rkblhwq:1,2014-08-01T17:45:00Z,26.0257,-81.7332,13.0,1111122 
NERRS,ioos:station:NOAA.NERRS:rkblhwq:1,2014-08-01T18:45:00Z,26.0257,-81.7332,48.0,1111122 
NERRS,ioos:station:NOAA.NERRS:rkblhwq:1,2014-08-01T19:45:00Z,26.0257,-81.7332,73.0,1111122 
NERRS,ioos:station:NOAA.NERRS:rkblhwq:1,2014-08-01T20:45:00Z,26.0257,-81.7332,78.0,1111122 
NERRS,ioos:station:NOAA.NERRS:rkblhwq:1,2014-08-01T21:45:00Z,26.0257,-81.7332,77.0,1111122 
NERRS,ioos:station:NOAA.NERRS:rkblhwq:1,2014-08-01T23:45:00Z,26.0257,-81.7332,138.0,1111122 
NERRS,ioos:station:NOAA.NERRS:rkblhwq:1,2014-08-02T00:45:00Z,26.0257,-81.7332,68.0,1111122 
NERRS,ioos:station:NOAA.NERRS:rkblhwq:1,2014-08-02T02:45:00Z,26.0257,-81.7332,173.0,1111122 
NERRS,ioos:station:NOAA.NERRS:rkblhwq:1,2014-08-02T04:45:00Z,26.0257,-81.7332,13.0,1111122 
NERRS,ioos:station:NOAA.NERRS:rkblhwq:1,2014-08-02T05:45:00Z,26.0257,-81.7332,27.0,1111122 
NERRS,ioos:station:NOAA.NERRS:rkblhwq:1,2014-08-02T07:45:00Z,26.0257,-81.7332,35.0,1111122 
NERRS,ioos:station:NOAA.NERRS:rkblhwq:1,2014-08-02T08:45:00Z,26.0257,-81.7332,8.0,1111122 
NERRS,ioos:station:NOAA.NERRS:rkblhwq:1,2014-08-02T09:45:00Z,26.0257,-81.7332,8.0,1111122 
NERRS,ioos:station:NOAA.NERRS:rkblhwq:1,2014-08-02T11:45:00Z,26.0257,-81.7332,24.0,1111122 
NERRS,ioos:station:NOAA.NERRS:rkblhwq:1,2014-08-02T12:45:00Z,26.0257,-81.7332,36.0,1111122 
NERRS,ioos:station:NOAA.NERRS:rkblhwq:1,2014-08-02T13:45:00Z,26.0257,-81.7332,62.0,1111122 
NERRS,ioos:station:NOAA.NERRS:rkblhwq:1,2014-08-02T14:45:00Z,26.0257,-81.7332,31.0,1111122 
NERRS,ioos:station:NOAA.NERRS:rkblhwq:1,2014-08-02T15:45:00Z,26.0257,-81.7332,24.0,1111122 
NERRS,ioos:station:NOAA.NERRS:rkblhwq:1,2014-08-02T16:45:00Z,26.0257,-81.7332,20.0,1111122 
NERRS,ioos:station:NOAA.NERRS:rkblhwq:1,2014-08-02T17:45:00Z,26.0257,-81.7332,22.0,1111122 
NERRS,ioos:station:NOAA.NERRS:rkblhwq:1,2014-08-02T18:45:00Z,26.0257,-81.7332,38.0,1111122 
NERRS,ioos:station:NOAA.NERRS:rkblhwq:1,2014-08-02T19:45:00Z,26.0257,-81.7332,17.0,1111122 
NERRS,ioos:station:NOAA.NERRS:rkblhwq:1,2014-08-02T20:45:00Z,26.0257,-81.7332,18.0,1111122 
NERRS,ioos:station:NOAA.NERRS:rkblhwq:1,2014-08-02T21:45:00Z,26.0257,-81.7332,11.0,1111122 
NERRS,ioos:station:NOAA.NERRS:rkblhwq:1,2014-08-02T22:45:00Z,26.0257,-81.7332,9.0,1111122 
NERRS,ioos:station:NOAA.NERRS:rkblhwq:1,2014-08-02T23:45:00Z,26.0257,-81.7332,61.0,1111122 
NERRS,ioos:station:NOAA.NERRS:rkblhwq:1,2014-08-03T00:45:00Z,26.0257,-81.7332,29.0,1111122 
NERRS,ioos:station:NOAA.NERRS:rkblhwq:1,2014-08-03T01:45:00Z,26.0257,-81.7332,28.0,1111122 
NERRS,ioos:station:NOAA.NERRS:rkblhwq:1,2014-08-03T02:45:00Z,26.0257,-81.7332,27.0,1111122 
NERRS,ioos:station:NOAA.NERRS:rkblhwq:1,2014-08-03T03:45:00Z,26.0257,-81.7332,18.0,1111122 
NERRS,ioos:station:NOAA.NERRS:rkblhwq:1,2014-08-03T04:45:00Z,26.0257,-81.7332,18.0,1111122 
NERRS,ioos:station:NOAA.NERRS:rkblhwq:1,2014-08-03T06:45:00Z,26.0257,-81.7332,4.0,1111122 
NERRS,ioos:station:NOAA.NERRS:rkblhwq:1,2014-08-03T07:45:00Z,26.0257,-81.7332,7.0,1111122 
NERRS,ioos:station:NOAA.NERRS:rkblhwq:1,2014-08-03T08:45:00Z,26.0257,-81.7332,7.0,1111122 
NERRS,ioos:station:NOAA.NERRS:rkblhwq:1,2014-08-03T09:45:00Z,26.0257,-81.7332,5.0,1111122 
NERRS,ioos:station:NOAA.NERRS:rkblhwq:1,2014-08-03T10:45:00Z,26.0257,-81.7332,4.0,1111122 
NERRS,ioos:station:NOAA.NERRS:rkblhwq:1,2014-08-03T11:45:00Z,26.0257,-81.7332,6.0,1111122 
NERRS,ioos:station:NOAA.NERRS:rkblhwq:1,2014-08-03T12:45:00Z,26.0257,-81.7332,14.0,1111122 
NERRS,ioos:station:NOAA.NERRS:rkblhwq:1,2014-08-03T13:45:00Z,26.0257,-81.7332,13.0,1111122 
NERRS,ioos:station:NOAA.NERRS:rkblhwq:1,2014-08-03T14:45:00Z,26.0257,-81.7332,17.0,1111122 
NERRS,ioos:station:NOAA.NERRS:rkblhwq:1,2014-08-03T15:45:00Z,26.0257,-81.7332,17.0,1111122 
NERRS,ioos:station:NOAA.NERRS:rkblhwq:1,2014-08-03T17:45:00Z,26.0257,-81.7332,17.0,1111122 
NERRS,ioos:station:NOAA.NERRS:rkblhwq:1,2014-08-03T18:45:00Z,26.0257,-81.7332,10.0,1111122 
NERRS,ioos:station:NOAA.NERRS:rkblhwq:1,2014-08-03T20:45:00Z,26.0257,-81.7332,8.0,1111122 
NERRS,ioos:station:NOAA.NERRS:rkblhwq:1,2014-08-03T21:45:00Z,26.0257,-81.7332,6.0,1111122 
NERRS,ioos:station:NOAA.NERRS:rkblhwq:1,2014-08-03T22:45:00Z,26.0257,-81.7332,5.0,1111122 
NERRS,ioos:station:NOAA.NERRS:rkblhwq:1,2014-08-03T23:45:00Z,26.0257,-81.7332,8.0,1111122 
NERRS,ioos:station:NOAA.NERRS:rkblhwq:1,2014-08-04T01:45:00Z,26.0257,-81.7332,23.0,1111122 
NERRS,ioos:station:NOAA.NERRS:rkblhwq:1,2014-08-04T02:45:00Z,26.0257,-81.7332,16.0,1111122 
NERRS,ioos:station:NOAA.NERRS:rkblhwq:1,2014-08-04T03:45:00Z,26.0257,-81.7332,10.0,1111122 
NERRS,ioos:station:NOAA.NERRS:rkblhwq:1,2014-08-04T04:45:00Z,26.0257,-81.7332,9.0,1111122 
NERRS,ioos:station:NOAA.NERRS:rkblhwq:1,2014-08-04T06:45:00Z,26.0257,-81.7332,166.0,1111122 
NERRS,ioos:station:NOAA.NERRS:rkblhwq:1,2014-08-04T07:45:00Z,26.0257,-81.7332,11.0,1111122 
NERRS,ioos:station:NOAA.NERRS:rkblhwq:1,2014-08-04T08:45:00Z,26.0257,-81.7332,9.0,1111122 
NERRS,ioos:station:NOAA.NERRS:rkblhwq:1,2014-08-04T09:45:00Z,26.0257,-81.7332,15.0,1111122 
NERRS,ioos:station:NOAA.NERRS:rkblhwq:1,2014-08-04T10:45:00Z,26.0257,-81.7332,11.0,1111122 
NERRS,ioos:station:NOAA.NERRS:rkblhwq:1,2014-08-04T11:45:00Z,26.0257,-81.7332,11.0,1111122 
NERRS,ioos:station:NOAA.NERRS:rkblhwq:1,2014-08-04T12:45:00Z,26.0257,-81.7332,15.0,1111122 
NERRS,ioos:station:NOAA.NERRS:rkblhwq:1,2014-08-04T13:45:00Z,26.0257,-81.7332,16.0,1111122 
NERRS,ioos:station:NOAA.NERRS:rkblhwq:1,2014-08-04T14:45:00Z,26.0257,-81.7332,30.0,1111122 
NERRS,ioos:station:NOAA.NERRS:rkblhwq:1,2014-08-04T15:45:00Z,26.0257,-81.7332,15.0,1111122 
NERRS,ioos:station:NOAA.NERRS:rkblhwq:1,2014-08-04T16:45:00Z,26.0257,-81.7332,71.0,1111122 
NERRS,ioos:station:NOAA.NERRS:rkblhwq:1,2014-08-04T17:45:00Z,26.0257,-81.7332,19.0,1111122 
NERRS,ioos:station:NOAA.NERRS:rkblhwq:1,2014-08-04T18:45:00Z,26.0257,-81.7332,19.0,1111122 
NERRS,ioos:station:NOAA.NERRS:rkblhwq:1,2014-08-04T19:45:00Z,26.0257,-81.7332,21.0,1111122 
NERRS,ioos:station:NOAA.NERRS:rkblhwq:1,2014-08-04T20:45:00Z,26.0257,-81.7332,21.0,1111122 
NERRS,ioos:station:NOAA.NERRS:rkblhwq:1,2014-08-04T21:45:00Z,26.0257,-81.7332,10.0,1111122 
NERRS,ioos:station:NOAA.NERRS:rkblhwq:1,2014-08-04T22:45:00Z,26.0257,-81.7332,11.0,1111122 
NERRS,ioos:station:NOAA.NERRS:rkblhwq:1,2014-08-04T23:45:00Z,26.0257,-81.7332,18.0,1111122 
NERRS,ioos:station:NOAA.NERRS:rkblhwq:1,2014-08-05T00:45:00Z,26.0257,-81.7332,13.0,1111122 
NERRS,ioos:station:NOAA.NERRS:rkblhwq:1,2014-08-05T01:45:00Z,26.0257,-81.7332,22.0,1111122 
NERRS,ioos:station:NOAA.NERRS:rkblhwq:1,2014-08-05T02:45:00Z,26.0257,-81.7332,23.0,1111122 
NERRS,ioos:station:NOAA.NERRS:rkblhwq:1,2014-08-05T03:45:00Z,26.0257,-81.7332,13.0,1111122 
NERRS,ioos:station:NOAA.NERRS:rkblhwq:1,2014-08-05T04:45:00Z,26.0257,-81.7332,15.0,1111122 
NERRS,ioos:station:NOAA.NERRS:rkblhwq:1,2014-08-05T06:45:00Z,26.0257,-81.7332,21.0,1111122 
NERRS,ioos:station:NOAA.NERRS:rkblhwq:1,2014-08-05T07:45:00Z,26.0257,-81.7332,11.0,1111122 
NERRS,ioos:station:NOAA.NERRS:rkblhwq:1,2014-08-05T08:45:00Z,26.0257,-81.7332,12.0,1111122 
NERRS,ioos:station:NOAA.NERRS:rkblhwq:1,2014-08-05T09:45:00Z,26.0257,-81.7332,13.0,1111122 
NERRS,ioos:station:NOAA.NERRS:rkblhwq:1,2014-08-05T12:45:00Z,26.0257,-81.7332,8.0,1111122 
NERRS,ioos:station:NOAA.NERRS:rkblhwq:1,2014-08-05T13:45:00Z,26.0257,-81.7332,19.0,1111122 
NERRS,ioos:station:NOAA.NERRS:rkblhwq:1,2014-08-05T14:45:00Z,26.0257,-81.7332,34.0,1111122 
NERRS,ioos:station:NOAA.NERRS:rkblhwq:1,2014-08-05T15:45:00Z,26.0257,-81.7332,35.0,1111122 
NERRS,ioos:station:NOAA.NERRS:rkblhwq:1,2014-08-05T16:45:00Z,26.0257,-81.7332,45.0,1111122 
NERRS,ioos:station:NOAA.NERRS:rkblhwq:1,2014-08-05T17:45:00Z,26.0257,-81.7332,35.0,1111122 
NERRS,ioos:station:NOAA.NERRS:rkblhwq:1,2014-08-05T18:45:00Z,26.0257,-81.7332,60.0,1111122 
NERRS,ioos:station:NOAA.NERRS:rkblhwq:1,2014-08-05T19:45:00Z,26.0257,-81.7332,45.0,1111122 
NERRS,ioos:station:NOAA.NERRS:rkblhwq:1,2014-08-05T21:45:00Z,26.0257,-81.7332,21.0,1111122 
NERRS,ioos:station:NOAA.NERRS:rkblhwq:1,2014-08-05T22:45:00Z,26.0257,-81.7332,20.0,1111122 
NERRS,ioos:station:NOAA.NERRS:rkblhwq:1,2014-08-05T23:45:00Z,26.0257,-81.7332,15.0,1111122 
NERRS,ioos:station:NOAA.NERRS:rkblhwq:1,2014-08-06T00:45:00Z,26.0257,-81.7332,11.0,1111122 
NERRS,ioos:station:NOAA.NERRS:rkblhwq:1,2014-08-06T01:45:00Z,26.0257,-81.7332,11.0,1111122 
NERRS,ioos:station:NOAA.NERRS:rkblhwq:1,2014-08-06T03:45:00Z,26.0257,-81.7332,16.0,1111122 
NERRS,ioos:station:NOAA.NERRS:rkblhwq:1,2014-08-06T04:45:00Z,26.0257,-81.7332,43.0,1111122 
NERRS,ioos:station:NOAA.NERRS:rkblhwq:1,2014-08-06T06:45:00Z,26.0257,-81.7332,30.0,1111122 
NERRS,ioos:station:NOAA.NERRS:rkblhwq:1,2014-08-06T07:45:00Z,26.0257,-81.7332,20.0,1111122 
NERRS,ioos:station:NOAA.NERRS:rkblhwq:1,2014-08-06T08:45:00Z,26.0257,-81.7332,23.0,1111122 
NERRS,ioos:station:NOAA.NERRS:rkblhwq:1,2014-08-06T09:45:00Z,26.0257,-81.7332,20.0,1111122 
NERRS,ioos:station:NOAA.NERRS:rkblhwq:1,2014-08-06T10:45:00Z,26.0257,-81.7332,16.0,1111122 
NERRS,ioos:station:NOAA.NERRS:rkblhwq:1,2014-08-06T11:45:00Z,26.0257,-81.7332,26.0,1111122 
NERRS,ioos:station:NOAA.NERRS:rkblhwq:1,2014-08-06T12:45:00Z,26.0257,-81.7332,15.0,1111122 
NERRS,ioos:station:NOAA.NERRS:rkblhwq:1,2014-08-06T13:45:00Z,26.0257,-81.7332,17.0,1111122 
NERRS,ioos:station:NOAA.NERRS:rkblhwq:1,2014-08-06T14:45:00Z,26.0257,-81.7332,20.0,1111122 
NERRS,ioos:station:NOAA.NERRS:rkblhwq:1,2014-08-06T15:45:00Z,26.0257,-81.7332,45.0,1111122 
NERRS,ioos:station:NOAA.NERRS:rkblhwq:1,2014-08-06T16:45:00Z,26.0257,-81.7332,7.0,1111122 
NERRS,ioos:station:NOAA.NERRS:rkblhwq:1,2014-08-06T17:45:00Z,26.0257,-81.7332,4.0,1111122 
NERRS,ioos:station:NOAA.NERRS:rkblhwq:1,2014-08-06T18:45:00Z,26.0257,-81.7332,6.0,1111122 
NERRS,ioos:station:NOAA.NERRS:rkblhwq:1,2014-08-06T19:45:00Z,26.0257,-81.7332,6.0,1111122 
NERRS,ioos:station:NOAA.NERRS:rkblhwq:1,2014-08-06T20:45:00Z,26.0257,-81.7332,9.0,1111122 
NERRS,ioos:station:NOAA.NERRS:rkblhwq:1,2014-08-06T21:45:00Z,26.0257,-81.7332,5.0,1111122 
NERRS,ioos:station:NOAA.NERRS:rkblhwq:1,2014-08-06T23:45:00Z,26.0257,-81.7332,4.0,1111122 
NERRS,ioos:station:NOAA.NERRS:rkblhwq:1,2014-08-07T00:45:00Z,26.0257,-81.7332,2.0,1111122 
NERRS,ioos:station:NOAA.NERRS:rkblhwq:1,2014-08-07T01:45:00Z,26.0257,-81.7332,2.0,1111122 
NERRS,ioos:station:NOAA.NERRS:rkblhwq:1,2014-08-07T02:45:00Z,26.0257,-81.7332,1.0,1111122 
NERRS,ioos:station:NOAA.NERRS:rkblhwq:1,2014-08-07T04:45:00Z,26.0257,-81.7332,1.0,1111122 
NERRS,ioos:station:NOAA.NERRS:rkblhwq:1,2014-08-07T06:45:00Z,26.0257,-81.7332,2.0,1111122 
NERRS,ioos:station:NOAA.NERRS:rkblhwq:1,2014-08-07T07:45:00Z,26.0257,-81.7332,1.0,1111122 
NERRS,ioos:station:NOAA.NERRS:rkblhwq:1,2014-08-07T09:45:00Z,26.0257,-81.7332,1.0,1111122 
NERRS,ioos:station:NOAA.NERRS:rkblhwq:1,2014-08-07T17:45:00Z,26.0257,-81.7332,2.0,1111122 
NERRS,ioos:station:NOAA.NERRS:rkblhwq:1,2014-08-07T18:45:00Z,26.0257,-81.7332,3.0,1111122 
NERRS,ioos:station:NOAA.NERRS:rkblhwq:1,2014-08-07T19:45:00Z,26.0257,-81.7332,4.0,1111122 
NERRS,ioos:station:NOAA.NERRS:rkblhwq:1,2014-08-07T20:45:00Z,26.0257,-81.7332,6.0,1111122 
NERRS,ioos:station:NOAA.NERRS:rkblhwq:1,2014-08-07T22:45:00Z,26.0257,-81.7332,8.0,1111122 
NERRS,ioos:station:NOAA.NERRS:rkblhwq:1,2014-08-07T23:45:00Z,26.0257,-81.7332,4.0,1111122 
NERRS,ioos:station:NOAA.NERRS:rkblhwq:1,2014-08-08T00:45:00Z,26.0257,-81.7332,4.0,1111122 
NERRS,ioos:station:NOAA.NERRS:rkblhwq:1,2014-08-08T01:45:00Z,26.0257,-81.7332,2.0,1111122 
NERRS,ioos:station:NOAA.NERRS:rkblhwq:1,2014-08-08T02:45:00Z,26.0257,-81.7332,2.0,1111122 
NERRS,ioos:station:NOAA.NERRS:rkblhwq:1,2014-08-08T03:45:00Z,26.0257,-81.7332,2.0,1111122 
NERRS,ioos:station:NOAA.NERRS:rkblhwq:1,2014-08-08T07:45:00Z,26.0257,-81.7332,1.0,1111122 
NERRS,ioos:station:NOAA.NERRS:rkblhwq:1,2014-08-08T08:45:00Z,26.0257,-81.7332,1.0,1111122 
NERRS,ioos:station:NOAA.NERRS:rkblhwq:1,2014-08-08T16:45:00Z,26.0257,-81.7332,1.0,1111122 
NERRS,ioos:station:NOAA.NERRS:rkblhwq:1,2014-08-08T19:45:00Z,26.0257,-81.7332,5.0,1111122 
NERRS,ioos:station:NOAA.NERRS:rkblhwq:1,2014-08-08T20:45:00Z,26.0257,-81.7332,7.0,1111122 
NERRS,ioos:station:NOAA.NERRS:rkblhwq:1,2014-08-08T21:45:00Z,26.0257,-81.7332,6.0,1111122 
NERRS,ioos:station:NOAA.NERRS:rkblhwq:1,2014-08-08T22:45:00Z,26.0257,-81.7332,9.0,1111122 
NERRS,ioos:station:NOAA.NERRS:rkblhwq:1,2014-08-08T23:45:00Z,26.0257,-81.7332,6.0,1111122 
NERRS,ioos:station:NOAA.NERRS:rkblhwq:1,2014-08-09T00:45:00Z,26.0257,-81.7332,3.0,1111122 
NERRS,ioos:station:NOAA.NERRS:rkblhwq:1,2014-08-09T01:45:00Z,26.0257,-81.7332,3.0,1111122 
NERRS,ioos:station:NOAA.NERRS:rkblhwq:1,2014-08-09T02:45:00Z,26.0257,-81.7332,3.0,1111122 
NERRS,ioos:station:NOAA.NERRS:rkblhwq:1,2014-08-09T03:45:00Z,26.0257,-81.7332,2.0,1111122 
NERRS,ioos:station:NOAA.NERRS:rkblhwq:1,2014-08-09T04:45:00Z,26.0257,-81.7332,1.0,1111122 
NERRS,ioos:station:NOAA.NERRS:rkblhwq:1,2014-08-09T06:45:00Z,26.0257,-81.7332,1.0,1111122 
NERRS,ioos:station:NOAA.NERRS:rkblhwq:1,2014-08-09T07:45:00Z,26.0257,-81.7332,4.0,1111122 
NERRS,ioos:station:NOAA.NERRS:rkblhwq:1,2014-08-09T19:45:00Z,26.0257,-81.7332,3.0,1111122 
NERRS,ioos:station:NOAA.NERRS:rkblhwq:1,2014-08-09T20:45:00Z,26.0257,-81.7332,5.0,1111122 
NERRS,ioos:station:NOAA.NERRS:rkblhwq:1,2014-08-09T21:45:00Z,26.0257,-81.7332,7.0,1111122 
NERRS,ioos:station:NOAA.NERRS:rkblhwq:1,2014-08-09T22:45:00Z,26.0257,-81.7332,9.0,1111122 
NERRS,ioos:station:NOAA.NERRS:rkblhwq:1,2014-08-09T23:45:00Z,26.0257,-81.7332,8.0,1111122 
NERRS,ioos:station:NOAA.NERRS:rkblhwq:1,2014-08-10T00:45:00Z,26.0257,-81.7332,7.0,1111122 
NERRS,ioos:station:NOAA.NERRS:rkblhwq:1,2014-08-10T01:45:00Z,26.0257,-81.7332,2.0,1111122 
NERRS,ioos:station:NOAA.NERRS:rkblhwq:1,2014-08-10T02:45:00Z,26.0257,-81.7332,2.0,1111122 
NERRS,ioos:station:NOAA.NERRS:rkblhwq:1,2014-08-10T03:45:00Z,26.0257,-81.7332,1.0,1111122 
NERRS,ioos:station:NOAA.NERRS:rkblhwq:1,2014-08-10T07:45:00Z,26.0257,-81.7332,4.0,1111122 
NERRS,ioos:station:NOAA.NERRS:rkblhwq:1,2014-08-10T08:45:00Z,26.0257,-81.7332,1.0,1111122 
NERRS,ioos:station:NOAA.NERRS:rkblhwq:1,2014-08-10T09:45:00Z,26.0257,-81.7332,2.0,1111122 
NERRS,ioos:station:NOAA.NERRS:rkblhwq:1,2014-08-10T10:45:00Z,26.0257,-81.7332,2.0,1111122 
NERRS,ioos:station:NOAA.NERRS:rkblhwq:1,2014-08-10T20:45:00Z,26.0257,-81.7332,4.0,1111122 
NERRS,ioos:station:NOAA.NERRS:rkblhwq:1,2014-08-10T21:45:00Z,26.0257,-81.7332,5.0,1111122 
NERRS,ioos:station:NOAA.NERRS:rkblhwq:1,2014-08-10T22:45:00Z,26.0257,-81.7332,7.0,1111122 
NERRS,ioos:station:NOAA.NERRS:rkblhwq:1,2014-08-10T23:45:00Z,26.0257,-81.7332,5.0,1111122 
NERRS,ioos:station:NOAA.NERRS:rkblhwq:1,2014-08-11T00:45:00Z,26.0257,-81.7332,8.0,1111122 
NERRS,ioos:station:NOAA.NERRS:rkblhwq:1,2014-08-11T02:45:00Z,26.0257,-81.7332,1.0,1111122 
NERRS,ioos:station:NOAA.NERRS:rkblhwq:1,2014-08-11T03:45:00Z,26.0257,-81.7332,2.0,1111122 
NERRS,ioos:station:NOAA.NERRS:rkblhwq:1,2014-08-11T04:45:00Z,26.0257,-81.7332,3.0,1111122 
NERRS,ioos:station:NOAA.NERRS:rkblhwq:1,2014-08-11T05:45:00Z,26.0257,-81.7332,1.0,1111122 
NERRS,ioos:station:NOAA.NERRS:rkblhwq:1,2014-08-11T09:45:00Z,26.0257,-81.7332,3.0,1111122 
NERRS,ioos:station:NOAA.NERRS:rkblhwq:1,2014-08-11T10:45:00Z,26.0257,-81.7332,3.0,1111122 
NERRS,ioos:station:NOAA.NERRS:rkblhwq:1,2014-08-11T11:45:00Z,26.0257,-81.7332,6.0,1111122 
NERRS,ioos:station:NOAA.NERRS:rkblhwq:1,2014-08-11T22:45:00Z,26.0257,-81.7332,3.0,1111122 
NERRS,ioos:station:NOAA.NERRS:rkblhwq:1,2014-08-11T23:45:00Z,26.0257,-81.7332,3.0,1111122 
NERRS,ioos:station:NOAA.NERRS:rkblhwq:1,2014-08-12T00:45:00Z,26.0257,-81.7332,7.0,1111122 
NERRS,ioos:station:NOAA.NERRS:rkblhwq:1,2014-08-12T01:45:00Z,26.0257,-81.7332,4.0,1111122 
NERRS,ioos:station:NOAA.NERRS:rkblhwq:1,2014-08-12T08:45:00Z,26.0257,-81.7332,2.0,1111122 
NERRS,ioos:station:NOAA.NERRS:rkblhwq:1,2014-08-12T09:45:00Z,26.0257,-81.7332,3.0,1111122 
NERRS,ioos:station:NOAA.NERRS:rkblhwq:1,2014-08-12T10:45:00Z,26.0257,-81.7332,3.0,1111122 
NERRS,ioos:station:NOAA.NERRS:rkblhwq:1,2014-08-12T11:45:00Z,26.0257,-81.7332,4.0,1111122 
NERRS,ioos:station:NOAA.NERRS:rkblhwq:1,2014-08-12T20:45:00Z,26.0257,-81.7332,1.0,1111122 
NERRS,ioos:station:NOAA.NERRS:rkblhwq:1,2014-08-12T22:45:00Z,26.0257,-81.7332,3.0,1111122 
NERRS,ioos:station:NOAA.NERRS:rkblhwq:1,2014-08-12T23:45:00Z,26.0257,-81.7332,2.0,1111122 
NERRS,ioos:station:NOAA.NERRS:rkblhwq:1,2014-08-13T00:45:00Z,26.0257,-81.7332,5.0,1111122 
NERRS,ioos:station:NOAA.NERRS:rkblhwq:1,2014-08-13T01:45:00Z,26.0257,-81.7332,3.0,1111122 
NERRS,ioos:station:NOAA.NERRS:rkblhwq:1,2014-08-13T11:45:00Z,26.0257,-81.7332,2.0,1111122 
NERRS,ioos:station:NOAA.NERRS:rkblhwq:1,2014-08-13T12:45:00Z,26.0257,-81.7332,3.0,1111122 
NERRS,ioos:station:NOAA.NERRS:rkblhwq:1,2014-08-13T13:45:00Z,26.0257,-81.7332,1.0,1111122 
NERRS,ioos:station:NOAA.NERRS:rkblhwq:1,2014-08-13T21:45:00Z,26.0257,-81.7332,2.0,1111122 
NERRS,ioos:station:NOAA.NERRS:rkblhwq:1,2014-08-13T22:45:00Z,26.0257,-81.7332,2.0,1111122 
NERRS,ioos:station:NOAA.NERRS:rkblhwq:1,2014-08-13T23:45:00Z,26.0257,-81.7332,1.0,1111122 
NERRS,ioos:station:NOAA.NERRS:rkblhwq:1,2014-08-14T00:45:00Z,26.0257,-81.7332,2.0,1111122 
NERRS,ioos:station:NOAA.NERRS:rkblhwq:1,2014-08-14T01:45:00Z,26.0257,-81.7332,1.0,1111122 
NERRS,ioos:station:NOAA.NERRS:rkblhwq:1,2014-08-14T02:45:00Z,26.0257,-81.7332,2.0,1111122 
NERRS,ioos:station:NOAA.NERRS:rkblhwq:1,2014-08-14T12:45:00Z,26.0257,-81.7332,3.0,1111122 
NERRS,ioos:station:NOAA.NERRS:rkblhwq:1,2014-08-14T14:45:00Z,26.0257,-81.7332,1.0,1111122 
NERRS,ioos:station:NOAA.NERRS:rkblhwq:1,2014-08-14T20:45:00Z,26.0257,-81.7332,30.0,1111122 
NERRS,ioos:station:NOAA.NERRS:rkblhwq:1,2014-08-15T01:45:00Z,26.0257,-81.7332,1.0,1111122 
NERRS,ioos:station:NOAA.NERRS:rkblhwq:1,2014-08-15T02:45:00Z,26.0257,-81.7332,1.0,1111122 
NERRS,ioos:station:NOAA.NERRS:rkblhwq:1,2014-08-15T03:45:00Z,26.0257,-81.7332,1.0,1111122 
NERRS,ioos:station:NOAA.NERRS:rkblhwq:1,2014-08-15T12:45:00Z,26.0257,-81.7332,1.0,1111122 
NERRS,ioos:station:NOAA.NERRS:rkblhwq:1,2014-08-15T14:45:00Z,26.0257,-81.7332,1.0,1111122 
NERRS,ioos:station:NOAA.NERRS:rkblhwq:1,2014-08-15T15:45:00Z,26.0257,-81.7332,3.0,1111122 
NERRS,ioos:station:NOAA.NERRS:rkblhwq:1,2014-08-16T01:45:00Z,26.0257,-81.7332,1.0,1111122 
NERRS,ioos:station:NOAA.NERRS:rkblhwq:1,2014-08-16T02:45:00Z,26.0257,-81.7332,3.0,1111122 
NERRS,ioos:station:NOAA.NERRS:rkblhwq:1,2014-08-16T03:45:00Z,26.0257,-81.7332,10.0,1111122 
NERRS,ioos:station:NOAA.NERRS:rkblhwq:1,2014-08-16T04:45:00Z,26.0257,-81.7332,786.0,1111122 
NERRS,ioos:station:NOAA.NERRS:rkblhwq:1,2014-08-16T07:45:00Z,26.0257,-81.7332,1.0,1111122 
NERRS,ioos:station:NOAA.NERRS:rkblhwq:1,2014-08-16T09:45:00Z,26.0257,-81.7332,28.0,1111122 
NERRS,ioos:station:NOAA.NERRS:rkblhwq:1,2014-08-16T14:45:00Z,26.0257,-81.7332,1.0,1111122 
NERRS,ioos:station:NOAA.NERRS:rkblhwq:1,2014-08-16T15:45:00Z,26.0257,-81.7332,1.0,1111122 
NERRS,ioos:station:NOAA.NERRS:rkblhwq:1,2014-08-16T16:45:00Z,26.0257,-81.7332,1.0,1111122 
NERRS,ioos:station:NOAA.NERRS:rkblhwq:1,2014-08-16T19:45:00Z,26.0257,-81.7332,42.0,1111122 
NERRS,ioos:station:NOAA.NERRS:rkblhwq:1,2014-08-16T23:45:00Z,26.0257,-81.7332,14.0,1111122 
NERRS,ioos:station:NOAA.NERRS:rkblhwq:1,2014-08-17T16:45:00Z,26.0257,-81.7332,1.0,1111122 
NERRS,ioos:station:NOAA.NERRS:rkblhwq:1,2014-08-17T18:45:00Z,26.0257,-81.7332,1.0,1111122 
NERRS,ioos:station:NOAA.NERRS:rkblhwq:1,2014-08-18T07:45:00Z,26.0257,-81.7332,20.0,1111122 
NERRS,ioos:station:NOAA.NERRS:rkblhwq:1,2014-08-18T16:45:00Z,26.0257,-81.7332,4.0,1111122 
NERRS,ioos:station:NOAA.NERRS:rkblhwq:1,2014-08-18T19:45:00Z,26.0257,-81.7332,1.0,1111122 
NERRS,ioos:station:NOAA.NERRS:rkblhwq:1,2014-08-18T23:45:00Z,26.0257,-81.7332,358.0,1111122 
NERRS,ioos:station:NOAA.NERRS:rkblhwq:1,2014-08-19T00:45:00Z,26.0257,-81.7332,557.0,1111122 
NERRS,ioos:station:NOAA.NERRS:rkblhwq:1,2014-08-19T01:45:00Z,26.0257,-81.7332,479.0,1111122 
NERRS,ioos:station:NOAA.NERRS:rkblhwq:1,2014-08-19T02:45:00Z,26.0257,-81.7332,475.0,1111122 
NERRS,ioos:station:NOAA.NERRS:rkblhwq:1,2014-08-19T03:45:00Z,26.0257,-81.7332,542.0,1111122 
NERRS,ioos:station:NOAA.NERRS:rkblhwq:1,2014-08-19T04:45:00Z,26.0257,-81.7332,859.0,1111122 
NERRS,ioos:station:NOAA.NERRS:rkblhwq:1,2014-08-19T06:45:00Z,26.0257,-81.7332,757.0,1111122 
NERRS,ioos:station:NOAA.NERRS:rkblhwq:1,2014-08-19T07:45:00Z,26.0257,-81.7332,940.0,1111122 
NERRS,ioos:station:NOAA.NERRS:rkblhwq:1,2014-08-19T08:45:00Z,26.0257,-81.7332,694.0,1111122 
NERRS,ioos:station:NOAA.NERRS:rkblhwq:1,2014-08-19T09:45:00Z,26.0257,-81.7332,865.0,1111122 
NERRS,ioos:station:NOAA.NERRS:rkblhwq:1,2014-08-19T10:45:00Z,26.0257,-81.7332,562.0,1111122 
NERRS,ioos:station:NOAA.NERRS:rkblhwq:1,2014-08-19T11:45:00Z,26.0257,-81.7332,772.0,1111122 
NERRS,ioos:station:NOAA.NERRS:rkblhwq:1,2014-08-19T12:45:00Z,26.0257,-81.7332,594.0,1111122 
NERRS,ioos:station:NOAA.NERRS:rkblhwq:1,2014-08-19T13:45:00Z,26.0257,-81.7332,576.0,1111122 
NERRS,ioos:station:NOAA.NERRS:rkblhwq:1,2014-08-19T14:45:00Z,26.0257,-81.7332,633.0,1111122 
NERRS,ioos:station:NOAA.NERRS:rkblhwq:1,2014-08-19T15:45:00Z,26.0257,-81.7332,940.0,1111122 
NERRS,ioos:station:NOAA.NERRS:rkblhwq:1,2014-08-19T22:45:00Z,26.0257,-81.7332,850.0,1111122 
NERRS,ioos:station:NOAA.NERRS:rkblhwq:1,2014-08-20T00:45:00Z,26.0257,-81.7332,102.0,1111122 
NERRS,ioos:station:NOAA.NERRS:rkblhwq:1,2014-08-20T01:45:00Z,26.0257,-81.7332,203.0,1111122 
NERRS,ioos:station:NOAA.NERRS:rkblhwq:1,2014-08-20T02:45:00Z,26.0257,-81.7332,204.0,1111122 
NERRS,ioos:station:NOAA.NERRS:rkblhwq:1,2014-08-20T03:45:00Z,26.0257,-81.7332,237.0,1111122 
NERRS,ioos:station:NOAA.NERRS:rkblhwq:1,2014-08-20T04:45:00Z,26.0257,-81.7332,118.0,1111122 
NERRS,ioos:station:NOAA.NERRS:rkblhwq:1,2014-08-20T05:45:00Z,26.0257,-81.7332,70.0,1111122 
NERRS,ioos:station:NOAA.NERRS:rkblhwq:1,2014-08-20T06:45:00Z,26.0257,-81.7332,3.0,1111122 
NERRS,ioos:station:NOAA.NERRS:rkblhwq:1,2014-08-20T09:45:00Z,26.0257,-81.7332,52.0,1111122 
NERRS,ioos:station:NOAA.NERRS:rkblhwq:1,2014-08-20T10:45:00Z,26.0257,-81.7332,426.0,1111122 
NERRS,ioos:station:NOAA.NERRS:rkblhwq:1,2014-08-20T11:45:00Z,26.0257,-81.7332,448.0,1111122 
NERRS,ioos:station:NOAA.NERRS:rkblhwq:1,2014-08-20T12:45:00Z,26.0257,-81.7332,438.0,1111122 
NERRS,ioos:station:NOAA.NERRS:rkblhwq:1,2014-08-20T13:45:00Z,26.0257,-81.7332,161.0,1111122 
NERRS,ioos:station:NOAA.NERRS:rkblhwq:1,2014-08-20T14:45:00Z,26.0257,-81.7332,71.0,1111122 
NERRS,ioos:station:NOAA.NERRS:rkblhwq:1,2014-08-20T15:45:00Z,26.0257,-81.7332,69.0,1111122 